Location: Batignolles
(48.8869°N, 2.3204°E)
Time: 21:29:04
(UTC+00:00)

Daily predictions for brighter satellites

Satellite Brightness Start Highest point End
(mag) Time Altitude Azimuth Time Altitude Azimuth Time Altitude Azimuth
SMAP 3.6 16:26:26 10° SE 16:30:44 38° ENE 16:35:02 10° N
YAOGAN 1 4.5 16:31:25 10° ENE 16:32:18 11° NE 16:33:11 10° NE
H-2A R/B 4.3 16:29:38 10° NNW 16:32:37 20° WNW 16:35:35 10° WSW
Cosmos 2360 Rocket 2.2 16:29:12 10° SSW 16:34:52 82° ESE 16:40:35 10° NNE
Tsikada Rocket 4.3 16:29:09 10° SSW 16:35:34 80° W 16:42:00 10° N
Cosmos 1933 4.2 16:32:30 10° SSW 16:36:26 53° WNW 16:40:23 10° N
SeaSat 1 4.4 16:35:43 10° NE 16:36:50 11° NNE 16:37:58 10° NNE
ALOS 3.0 16:32:50 10° S 16:37:26 61° WSW 16:42:05 10° NNW
RESURS DK-1 4.0 16:36:43 10° SSE 16:39:33 18° ESE 16:42:24 10° ENE
Cosmos 304 Rocket 3.9 16:36:52 10° NNW 16:41:35 52° ENE 16:46:16 10° SE
Cosmos 1980 Rocket 4.2 16:37:30 10° W 16:41:45 21° NW 16:46:01 10° N
Cosmos 2333 Rocket 2.9 16:37:09 10° S 16:42:19 36° ESE 16:47:33 10° NE
Cosmos 332 Rocket 3.8 16:38:46 10° NNW 16:43:40 89° ENE 16:48:31 10° SSE
Cosmos 1733 Rocket 3.8 16:41:26 10° N 16:45:19 31° ENE 16:49:13 10° SE
USA 215 3.4 16:41:41 10° NE 16:48:14 77° NNW 16:54:46 10° WSW
CENTAUR R/B 3.6 16:40:37 10° NW 16:48:34 72° SW 16:57:13 10° SSE
ERBS 2.3 16:45:45 10° NW 16:49:07 87° SSW 16:52:27 10° SE
Meteor 1-14 Rocket 4.5 16:43:20 10° NNW 16:49:19 83° W 16:55:09 10° S
Cosmos 1869 Rocket 3.7 16:46:56 10° NNW 16:51:21 81° W 16:55:46 10° S
Radarsat Rocket 4.4 16:45:58 10° S 16:52:14 71° WSW 16:58:06 10° NNW
Envisat 3.5 16:48:30 10° SE 16:53:05 35° ENE 16:57:41 10° N
Cosmos 2237 Rocket 3.6 16:51:13 10° SE 16:54:57 18° E 16:57:53 13° ENE
Feng Yun 1-1 Rocket 4.1 16:51:46 10° SSE 16:57:08 70° ENE 17:02:31 10° NNW
Cosmos 2322 Rocket 3.3 16:53:34 10° WSW 16:58:50 40° NW 17:04:10 10° NNE
PSLV R/B 3.9 16:55:07 10° NNE 16:59:18 69° ESE 17:03:25 10° S
Cosmos 1812 3.8 16:56:24 10° SE 16:59:35 25° E 17:02:32 11° NE
Exosat Rocket 4.5 16:55:34 10° SSE 17:00:10 29° ESE 17:03:51 13° NE
Cosmos 1844 4.1 16:55:28 10° NNW 17:01:10 68° WSW 17:06:44 10° SSE
NOSS 2-2 (D) 4.4 16:58:08 10° WSW 17:01:40 38° NW 17:05:48 10° NNE
SL-16 R/B 3.6 16:59:06 10° WSW 17:04:14 34° NW 17:09:24 10° NNE
Cosmos 1992 Rocket 4.4 17:02:07 10° N 17:07:01 39° ENE 17:11:54 10° SE
Cosmos 1536 3.7 17:04:43 10° N 17:08:15 28° ENE 17:11:44 10° SE
Okean O Rocket 3.4 17:05:28 10° SSW 17:09:28 36° W 17:13:30 10° NNW
CZ-4 R/B 2.4 17:07:31 10° ESE 17:10:40 24° ENE 17:13:48 10° NNE
Cosmos 2219 Rocket 2.3 17:07:43 10° S 17:13:12 59° ESE 17:18:26 12° NE
Cosmos 1689 Rocket 4.4 17:14:54 10° NNW 17:17:26 24° WNW 17:19:55 10° WSW
CORIOLIS 4.1 17:12:56 10° SSE 17:18:23 85° ENE 17:23:52 10° NNW
Cosmos 1844 Rocket 4.1 17:13:36 10° NW 17:18:48 41° WSW 17:23:58 10° S
Okean-O 2.6 17:15:42 10° SSE 17:20:05 63° ENE 17:24:29 10° N
NOAA 12 4.0 17:16:46 10° SSE 17:22:03 71° ENE 17:27:20 10° N
Cosmos 1862 Rocket 3.8 17:18:16 10° SSE 17:22:23 44° E 17:26:30 10° NNE
Cosmos 1500 3.1 17:20:22 10° N 17:24:07 60° ENE 17:27:50 10° SSE
Cosmos 1980 4.4 17:19:43 10° SSE 17:24:38 32° ESE 17:27:28 21° ENE
Lacrosse 5 rocket 2.4 17:21:34 10° SSW 17:25:19 30° SE 17:26:52 23° E
AQUARIUS 4.4 17:21:07 10° S 17:25:37 75° WSW 17:30:09 10° NNW
BREEZE-M DEB (TANK) 2.5 17:19:19 10° WNW 17:25:42 74° SSW 17:27:30 21° ESE
CZ-4B R/B 4.3 17:23:59 10° NNW 17:26:07 15° WNW 17:28:13 10° W
NOSS 3-4 (A) 3.5 17:20:07 10° SW 17:26:10 80° NW 17:31:33 16° NE
NOSS 3-4 (C) 3.5 17:20:13 10° SW 17:26:17 80° NW 17:31:39 16° NE
Cosmos 2279 Rocket 4.3 17:20:39 10° NNW 17:26:53 70° W 17:33:05 10° S
ATLAS 3B R/B 3.6 17:21:00 10° NW 17:27:28 52° WSW 17:34:06 10° SSE
Cosmos 1340 4.4 17:24:03 10° NNW 17:27:33 36° W 17:31:01 10° SSW
Transit 2A Rocket 4.5 17:23:18 10° SSW 17:27:51 73° ESE 17:30:41 21° NE
H-2A R/B 3.1 17:24:43 10° S 17:28:24 65° WSW 17:32:05 10° NNW
ISS -3.9 17:25:11 10° WNW 17:28:33 84° NNE 17:30:12 28° ESE
Cosmos 1943 Rocket 3.8 17:31:10 10° N 17:34:35 16° NE 17:34:39 16° NE
COSMOS 2428 2.6 17:28:57 10° SSW 17:34:37 82° ESE 17:39:28 15° NNE
SL-4 R/B 2.0 17:31:38 10° SW 17:35:20 60° SSE 17:36:58 32° E
COSMOS 2455 4.3 17:30:14 10° W 17:35:31 31° NW 17:40:49 10° NNE
Meteor 1-5 Rocket 4.2 17:30:24 10° NNW 17:36:03 83° W 17:41:29 10° S
Ariane Rocket 4.3 17:37:34 20° NE 17:37:34 20° NE 17:40:14 10° N
COBE Rocket 3.8 17:31:56 10° NNE 17:36:37 85° WNW 17:41:17 10° SSW
Cosmos 1707 Rocket 4.2 17:34:13 10° SSW 17:38:37 58° WNW 17:43:03 10° N
CSL-04 Rocket 3.9 17:34:38 10° SE 17:39:37 44° ENE 17:44:37 10° N
STARLINK-67 2.7 17:41:58 10° WSW 17:44:43 61° NNW 17:44:53 59° N
Cosmos 1900 4.3 17:40:12 10° NNW 17:45:03 58° NE 17:48:10 21° ESE
NOSS 7 (A) 4.5 17:41:56 10° SW 17:45:08 76° SE 17:45:35 59° ENE
FengYun 1-2 T 4.1 17:41:38 10° SSE 17:47:05 74° ENE 17:52:35 10° NNW
Cosmos 1315 Rocket 4.4 17:43:34 10° SW 17:47:13 35° WNW 17:50:58 10° N
YAOGAN 6 2.4 17:43:58 10° SSE 17:47:27 67° ENE 17:51:01 10° N
Nadezhda 4 Rocket 3.9 17:43:06 10° S 17:49:24 78° E 17:55:45 10° NNE
CSL-04 Debris 4.2 17:45:12 10° SE 17:50:31 55° ENE 17:55:50 10° N
Cosmos 1908 Rocket 3.5 17:51:08 10° N 17:55:33 62° ENE 17:59:54 10° SSE
COSMO-SKYMED 1 2.5 17:53:53 29° NNE 17:55:59 62° ESE 18:00:16 10° S
Shenzhou-11 Module 3.8 17:56:15 10° SW 17:58:10 21° S 17:58:10 21° S
STARLINK-46 3.6 17:57:57 10° SW 17:59:57 39° SSW 17:59:57 39° SSW
Genesis I 4.5 17:58:34 10° NNW 18:01:01 27° N 18:01:01 27° N
ATLAS 2AS CENTAUR R/B 3.7 17:56:41 10° WSW 18:04:28 50° NW 18:10:07 19° NNE
Cosmos 2251 Rocket 3.4 18:00:52 10° SSW 18:06:11 85° ESE 18:09:04 28° NNE
YAOGAN 1 2.4 18:03:18 10° SSE 18:07:37 73° ENE 18:11:57 10° N
NOAA 11 4.2 18:03:31 10° SSE 18:08:51 58° ENE 18:14:14 10° N
Cosmos 1666 2.4 18:05:16 10° N 18:09:03 82° E 18:12:46 10° SSE
Cosmos 2278 Rocket 2.6 18:04:15 10° NNW 18:09:52 64° WSW 18:15:26 10° SSE
BREEZE-M R/B 2.5 18:05:02 10° W 18:10:02 77° N 18:10:05 77° N
Cosmos 2026 Rocket 3.9 18:06:30 10° SSE 18:12:22 54° E 18:15:47 25° NNE
SeaSat 1 3.3 18:14:08 34° NNE 18:14:08 34° NNE 18:17:43 10° NNW
USA 116 4.4 18:11:46 32° NNE 18:14:13 64° E 18:19:26 10° S
RESURS DK-1 3.0 18:13:10 10° SW 18:17:12 53° NW 18:18:24 38° N
Cosmos 2360 Rocket 4.1 18:15:05 10° W 18:19:35 23° NW 18:23:59 10° N
SL-16 R/B 3.4 18:19:52 10° S 18:22:46 26° SE 18:22:46 26° SE
Cosmos 2369 Rocket 3.7 18:21:16 10° N 18:23:52 21° NNE 18:23:52 21° NNE
Cosmos 2333 Rocket 3.2 18:21:01 10° SW 18:26:30 45° NW 18:30:14 20° N
Meteor 1-27 Rocket 4.3 18:22:05 10° SSW 18:27:42 58° WNW 18:33:30 10° N
Okean 1-7 4.3 18:26:02 10° S 18:28:17 30° S 18:28:17 30° S
USA 215 3.8 18:28:40 35° NE 18:30:51 46° N 18:37:02 10° W
Cosmos 1867 4.3 18:26:31 10° NNW 18:30:44 37° NNE 18:30:44 37° NNE
Cosmos 292 Rocket 3.8 18:26:53 10° NNW 18:31:47 79° WSW 18:33:42 37° S
Cosmos 1627 Rocket 4.3 18:27:11 10° S 18:33:18 81° E 18:37:50 19° NNE
Cosmos 2237 Rocket 2.2 18:32:35 10° SSW 18:38:18 82° WNW 18:39:45 52° NNE
CZ-4 R/B 2.9 18:41:58 10° SSW 18:45:34 34° W 18:49:09 10° NNW
Cosmos 1092 Rocket 4.5 18:46:47 10° SSW 18:53:00 59° WNW 18:59:14 10° N
Cosmos 2219 Rocket 3.8 18:52:40 10° WSW 18:57:33 30° NW 19:00:10 21° N
Lacrosse 5 rocket 3.1 19:00:11 10° WSW 19:02:32 30° W 19:02:32 30° W
ISS -0.6 19:02:14 10° W 19:03:08 15° W 19:03:08 15° W
NOSS 3-1 (C) 4.4 19:00:39 10° NW 19:06:34 43° NNE 19:06:34 43° NNE
Cosmos 1980 4.4 19:03:04 10° SW 19:08:31 49° NW 19:09:21 45° NNW
Cosmos 2297 3.9 19:03:24 10° NNW 19:08:43 67° W 19:08:43 67° W
USA 229 DEB 4.4 19:07:07 10° NW 19:12:39 43° N 19:12:39 43° N
USA 229 4.4 19:07:13 10° NW 19:12:44 42° N 19:12:44 42° N
SL-4 R/B 4.3 19:11:08 10° W 19:12:35 22° W 19:12:35 22° W
Cosmos 1943 Rocket 3.9 19:13:59 10° NNW 19:16:11 24° NNW 19:16:11 24° NNW
ATLAS 2AS CENTAUR R/B 4.3 19:50:37 10° WNW 19:57:22 28° N 19:57:33 28° N
Cosmos 2344 4.4 20:10:52 10° NW 20:18:49 71° NNW 20:18:49 71° NNW
